Weather History for Lambertville, MI

Change the Weather History Date:

Monday, January 13, 2014

  Actual Average (KTOL) Record (KTOL)
Temperature  
Mean Temperature 42 °F 25 °F  
Max Temperature 48 °F 32 °F 71 °F (1890)
Min Temperature 37 °F 18 °F -15 °F (1977)
Degree Days  
Heating Degree Days 22 40  
Month to date heating degree days 511  
Since 1 July heating degree days 2836  
Cooling Degree Days 0 0  
Month to date cooling degree days 0  
Year to date cooling degree days 0  
Moisture  
Dew Point 35 °F    
Average Humidity 72    
Maximum Humidity 87    
Minimum Humidity 61    
Precipitation  
Precipitation 0.00 in 0.07 in 1.68 in (2013)
Month to date precipitation 0.95  
Year to date precipitation 0.95  
Snow  
Snow 0.00 in 0.30 in - ()
Month to date snowfall 4.5  
Since 1 July snowfall 14.0  
Snow Depth -    
Sea Level Pressure  
Sea Level Pressure 29.67 in    
Wind  
Wind Speed 10 mph (SSW)    
Max Wind Speed 17 mph    
Max Gust Speed 24 mph    
Visibility 10 miles    
Events      
T = Trace of Precipitation, MM = Missing Value Source: NWS Daily Summary

Daily Weather History Graph

Daily Weather History Graph

Search for Another Location

Airport:

Trip Planner

Search our weather history database for the weather conditions in past years. The results will help you decide how hot, cold, wet, or windy it might be!

Date:

Astronomy

Jan. 13, 2014 Rise Set
Actual Time 8:00 AM EST 5:26 PM EST
Civil Twilight 7:29 AM EST 5:57 PM EST
Nautical Twilight 6:54 AM EST 6:32 PM EST
Astronomical Twilight 6:21 AM EST 7:05 PM EST
Moon 3:41 PM EST (1/13) 5:47 AM EST (1/13)
Length of Visible Light 10h 28m
Length of Day
9h 26m
Waxing Gibbous, 95% of the Moon is Illuminated
Jan 13
Waxing Gibbous
Jan 15
Full
Jan 24
Last Quarter
Jan 30
New
Feb 6
First Quarter

Hourly Weather History & Observations

Time (EST) Temp. Windchill Dew Point Humidity Pressure Visibility Wind Dir Wind Speed Gust Speed Precip Events Conditions
12:15 AM 37.4 °F 32.8 °F 32.0 °F 81% 29.79 in 10.0 mi SSW 5.8 mph - N/A   Clear
12:35 AM 37.4 °F 31.4 °F 32.0 °F 81% 29.78 in 10.0 mi South 8.1 mph - N/A   Clear
12:55 AM 37.4 °F 32.1 °F 32.0 °F 81% 29.77 in 10.0 mi South 6.9 mph - N/A   Clear
1:15 AM 39.2 °F 33.0 °F 32.0 °F 75% 29.77 in 10.0 mi South 9.2 mph - N/A   Clear
1:35 AM 37.4 °F 30.8 °F 32.0 °F 81% 29.75 in 10.0 mi South 9.2 mph - N/A   Clear
1:55 AM 39.2 °F 33.0 °F 32.0 °F 75% 29.76 in 10.0 mi South 9.2 mph - N/A   Clear
2:15 AM 39.2 °F 32.0 °F 32.0 °F 75% 29.75 in 10.0 mi SSW 11.5 mph 18.4 mph N/A   Clear
2:35 AM 41.0 °F 34.3 °F 32.0 °F 70% 29.75 in 10.0 mi SSW 11.5 mph 18.4 mph N/A   Clear
2:55 AM 41.0 °F 35.8 °F 32.0 °F 70% 29.75 in 10.0 mi SSW 8.1 mph 16.1 mph N/A   Clear
3:15 AM 41.0 °F 34.7 °F 32.0 °F 70% 29.74 in 10.0 mi SSW 10.4 mph - N/A   Clear
3:35 AM 41.0 °F 35.2 °F 32.0 °F 70% 29.73 in 10.0 mi SSW 9.2 mph - N/A   Clear
3:55 AM 41.0 °F 33.9 °F 32.0 °F 70% 29.73 in 10.0 mi South 12.7 mph 17.3 mph N/A   Clear
4:15 AM 41.0 °F 34.7 °F 32.0 °F 70% 29.72 in 10.0 mi South 10.4 mph 17.3 mph N/A   Clear
4:35 AM 41.0 °F 34.3 °F 32.0 °F 70% 29.71 in 10.0 mi SSW 11.5 mph 17.3 mph N/A   Clear
4:55 AM 41.0 °F 33.9 °F 32.0 °F 70% 29.71 in 10.0 mi SSW 12.7 mph 18.4 mph N/A   Clear
5:15 AM 41.0 °F 34.3 °F 32.0 °F 70% 29.71 in 10.0 mi SSW 11.5 mph 20.7 mph N/A   Clear
5:35 AM 42.8 °F 36.2 °F 32.0 °F 66% 29.70 in 10.0 mi SSW 12.7 mph 20.7 mph N/A   Clear
5:55 AM 42.8 °F 37.0 °F 32.0 °F 66% 29.70 in 10.0 mi SSW 10.4 mph 19.6 mph N/A   Clear
6:15 AM 42.8 °F 35.8 °F 32.0 °F 66% 29.69 in 10.0 mi SSW 13.8 mph 20.7 mph N/A   Clear
6:35 AM 42.8 °F 36.2 °F 32.0 °F 66% 29.69 in 10.0 mi SSW 12.7 mph 19.6 mph N/A   Clear
6:55 AM 42.8 °F 36.2 °F 32.0 °F 66% 29.69 in 10.0 mi SSW 12.7 mph 17.3 mph N/A   Clear
7:15 AM 41.0 °F 34.3 °F 32.0 °F 70% 29.68 in 10.0 mi SSW 11.5 mph 19.6 mph N/A   Clear
7:35 AM 42.8 °F 36.6 °F 32.0 °F 66% 29.68 in 10.0 mi South 11.5 mph 21.9 mph N/A   Clear
7:55 AM 42.8 °F 36.6 °F 32.0 °F 66% 29.68 in 10.0 mi SSW 11.5 mph 19.6 mph N/A   Clear
8:15 AM 42.8 °F 35.8 °F 32.0 °F 66% 29.67 in 10.0 mi SSW 13.8 mph 20.7 mph N/A   Clear
8:35 AM 42.8 °F 37.0 °F 32.0 °F 66% 29.66 in 10.0 mi SSW 10.4 mph 20.7 mph N/A   Clear
8:55 AM 42.8 °F 36.6 °F 32.0 °F 66% 29.65 in 10.0 mi South 11.5 mph 19.6 mph N/A   Clear
9:15 AM 44.6 °F 39.7 °F 32.0 °F 61% 29.65 in 10.0 mi SSW 9.2 mph 20.7 mph N/A   Clear
9:35 AM 44.6 °F 39.7 °F 32.0 °F 61% 29.65 in 10.0 mi South 9.2 mph 19.6 mph N/A   Clear
9:55 AM 44.6 °F 38.4 °F 32.0 °F 61% 29.65 in 10.0 mi SSW 12.7 mph 18.4 mph N/A   Clear
10:15 AM 44.6 °F 38.8 °F 32.0 °F 61% 29.65 in 10.0 mi SSW 11.5 mph 18.4 mph N/A   Clear
10:35 AM 44.6 °F 39.2 °F 32.0 °F 61% 29.65 in 10.0 mi South 10.4 mph 19.6 mph N/A   Clear
10:55 AM 44.6 °F 37.8 °F 32.0 °F 61% 29.67 in 10.0 mi SSW 15.0 mph 20.7 mph N/A   Clear
11:15 AM 44.6 °F 40.2 °F 32.0 °F 61% 29.66 in 10.0 mi South 8.1 mph 19.6 mph N/A   Clear
11:35 AM 44.6 °F 38.1 °F 32.0 °F 61% 29.64 in 10.0 mi SSW 13.8 mph 19.6 mph N/A   Clear
11:55 AM 44.6 °F 39.7 °F 32.0 °F 61% 29.63 in 10.0 mi South 9.2 mph 17.3 mph N/A   Clear
12:15 PM 46.4 °F 41.5 °F 33.8 °F 62% 29.63 in 10.0 mi SSW 10.4 mph 20.7 mph N/A   Scattered Clouds
12:35 PM 46.4 °F 40.7 °F 33.8 °F 62% 29.62 in 10.0 mi SSW 12.7 mph 24.2 mph N/A   Scattered Clouds
12:55 PM 46.4 °F 41.1 °F 33.8 °F 62% 29.61 in 10.0 mi SSW 11.5 mph 21.9 mph N/A   Scattered Clouds
1:15 PM 46.4 °F 39.5 °F 35.6 °F 66% 29.60 in 10.0 mi SSW 17.3 mph 24.2 mph N/A   Clear
1:35 PM 46.4 °F 40.7 °F 35.6 °F 66% 29.60 in 10.0 mi SW 12.7 mph 19.6 mph N/A   Mostly Cloudy
1:55 PM 46.4 °F 41.5 °F 35.6 °F 66% 29.59 in 10.0 mi SW 10.4 mph 19.6 mph N/A   Overcast
2:15 PM 48.2 °F - 37.4 °F 66% 29.60 in 10.0 mi SSW 16.1 mph 23.0 mph N/A   Overcast
2:35 PM 48.2 °F - 37.4 °F 66% 29.59 in 10.0 mi SW 12.7 mph 19.6 mph N/A   Overcast
2:55 PM 48.2 °F - 37.4 °F 66% 29.59 in 10.0 mi SSW 12.7 mph 24.2 mph N/A   Overcast
3:15 PM 46.4 °F 40.7 °F 37.4 °F 71% 29.60 in 10.0 mi SSW 12.7 mph 17.3 mph N/A   Overcast
3:35 PM 46.4 °F 41.5 °F 39.2 °F 76% 29.60 in 10.0 mi SSW 10.4 mph 18.4 mph N/A   Overcast
3:55 PM 46.4 °F 41.1 °F 39.2 °F 76% 29.60 in 10.0 mi SSW 11.5 mph 17.3 mph N/A   Overcast
4:15 PM 46.4 °F 41.5 °F 39.2 °F 76% 29.60 in 10.0 mi SSW 10.4 mph 16.1 mph N/A   Overcast
4:35 PM 46.4 °F 41.5 °F 39.2 °F 76% 29.61 in 10.0 mi SSW 10.4 mph - N/A   Overcast
4:55 PM 46.4 °F 41.9 °F 39.2 °F 76% 29.61 in 10.0 mi SSW 9.2 mph - N/A   Mostly Cloudy
5:15 PM 46.4 °F 42.4 °F 39.2 °F 76% 29.62 in 10.0 mi SSW 8.1 mph - N/A   Mostly Cloudy
5:35 PM 46.4 °F 41.9 °F 39.2 °F 76% 29.62 in 10.0 mi SSW 9.2 mph - N/A   Overcast
5:55 PM 46.4 °F 41.9 °F 39.2 °F 76% 29.62 in 10.0 mi SSW 9.2 mph - N/A   Overcast
6:15 PM 46.4 °F 42.4 °F 39.2 °F 76% 29.63 in 10.0 mi SW 8.1 mph - N/A   Overcast
6:35 PM 46.4 °F 42.9 °F 39.2 °F 76% 29.63 in 10.0 mi SW 6.9 mph - N/A   Mostly Cloudy
6:55 PM 46.4 °F 43.5 °F 39.2 °F 76% 29.64 in 10.0 mi SW 5.8 mph - N/A   Overcast
7:15 PM 46.4 °F 42.9 °F 39.2 °F 76% 29.65 in 10.0 mi SW 6.9 mph - N/A   Overcast
7:35 PM 44.6 °F 40.7 °F 39.2 °F 81% 29.65 in 10.0 mi SW 6.9 mph - N/A   Overcast
7:55 PM 44.6 °F 40.2 °F 39.2 °F 81% 29.65 in 10.0 mi SW 8.1 mph - N/A   Overcast
8:15 PM 44.6 °F 40.2 °F 39.2 °F 81% 29.65 in 10.0 mi SW 8.1 mph 17.3 mph N/A   Mostly Cloudy
8:35 PM 44.6 °F 38.8 °F 39.2 °F 81% 29.65 in 10.0 mi SW 11.5 mph 17.3 mph N/A   Scattered Clouds
8:55 PM 44.6 °F 39.7 °F 39.2 °F 81% 29.66 in 10.0 mi SW 9.2 mph 16.1 mph N/A   Scattered Clouds
9:15 PM 44.6 °F 39.2 °F 37.4 °F 76% 29.66 in 10.0 mi WSW 10.4 mph 17.3 mph N/A   Scattered Clouds
9:35 PM 42.8 °F 36.6 °F 37.4 °F 81% 29.66 in 10.0 mi WSW 11.5 mph 18.4 mph N/A   Clear
9:55 PM 42.8 °F 37.0 °F 37.4 °F 81% 29.66 in 10.0 mi WSW 10.4 mph 16.1 mph N/A   Clear
10:15 PM 42.8 °F 38.0 °F 35.6 °F 76% 29.66 in 10.0 mi WSW 8.1 mph - N/A   Clear
10:35 PM 41.0 °F 35.8 °F 35.6 °F 81% 29.67 in 10.0 mi WSW 8.1 mph - N/A   Clear
10:55 PM 41.0 °F 36.4 °F 35.6 °F 81% 29.68 in 10.0 mi WSW 6.9 mph - N/A   Clear
11:15 PM 39.2 °F 34.2 °F 33.8 °F 81% 29.68 in 10.0 mi West 6.9 mph - N/A   Clear
11:35 PM 37.4 °F 33.8 °F 33.8 °F 87% 29.68 in 10.0 mi West 4.6 mph - N/A   Clear
11:55 PM 37.4 °F 32.8 °F 33.8 °F 87% 29.69 in 10.0 mi West 5.8 mph - N/A   Clear